Main page
METAR-TAF:

METAR-TAF

Airports :

Oil platform

Troll A, Norway

latitude: 60-38-42N, longitude: 3-43-29E, elevation: 20 m

Current weather observation

The report was made 34 minutes ago, at 07:20 UTC
Wind 30 kt from the West/Southwest
Temperature 4°C
Humidity 87%
Pressure 1013 hPa
Visibility: 4400 m
rain showers

METAR: ENQA 240720Z AUTO 25030KT 4400NDV SHRA OVC018/// 04/02 Q1013 W01/S6

Time: 08:54 (07:54 UTC)


TAF: missing

Weather observations and forecasts of more than 4000 airports (METAR and TAF reports).

The available stations are represented by yellow and red dots on the map.

Hover mouse over dot to see the name of the station.

Then click to see weather observations and forecasts.

To change the map : click on the green buttons with a black cross to zoom in, on the green button with a dash to zoom out, or on the green arrows for adjacent maps.


METAR-TAF: